• En España
  • Lista de países
  • Para 7 días
  • Temperatura del agua
  • Mapa Satelital
  • El tiempo en el mapa
  • Informadores
  • user-avatar
    Iniciar sesión

    Tiempo cada hora Wiktoria

    Hoy, 24 Septiembre, Domingo

    Tiempo Temperatura Precipitaciones Viento Presión Humedad
    00:00 +12°C° 0 mm 2 mps 739 mmHg 84%
    01:00 +10°C° 0 mm 2 mps 739 mmHg 88%
    02:00 +9°C° 0 mm 2 mps 739 mmHg 89%
    03:00 +8°C° 0 mm 2 mps 739 mmHg 91%
    04:00 +8°C° 0 mm 2 mps 739 mmHg 92%
    05:00 +8°C° 0 mm 3 mps 739 mmHg 91%
    06:00 +8°C° 0 mm 3 mps 740 mmHg 91%
    07:00 +8°C° 0 mm 3 mps 740 mmHg 90%
    08:00 +10°C° 0,1 mm 4 mps 740 mmHg 86%
    09:00 +10°C° 0,1 mm 6 mps 740 mmHg 82%
    10:00 +12°C° 0,1 mm 7 mps 740 mmHg 78%
    11:00 +14°C° 0,2 mm 7 mps 740 mmHg 74%
    12:00 +15°C° 0,2 mm 8 mps 740 mmHg 69%
    13:00 +16°C° 0,2 mm 8 mps 739 mmHg 65%
    14:00 +16°C° 0,1 mm 8 mps 739 mmHg 63%
    15:00 +16°C° 0,1 mm 8 mps 739 mmHg 62%
    16:00 +16°C° 0,1 mm 7 mps 739 mmHg 61%
    17:00 +14°C° 0 mm 6 mps 739 mmHg 62%
    18:00 +13°C° 0 mm 5 mps 740 mmHg 62%
    19:00 +12°C° 0 mm 4 mps 740 mmHg 62%
    20:00 +11°C° 0 mm 4 mps 741 mmHg 62%
    21:00 +11°C° 0 mm 4 mps 741 mmHg 62%
    22:00 +10°C° 0 mm 5 mps 742 mmHg 62%
    23:00 +9°C° 0 mm 5 mps 742 mmHg 67%

    Mañana, 25 Septiembre, Lunes

    Tiempo Temperatura Precipitaciones Viento Presión Humedad
    00:00 +9°C° 0 mm 5 mps 742 mmHg 71%
    01:00 +8°C° 0 mm 5 mps 743 mmHg 76%
    02:00 +8°C° 0 mm 4 mps 743 mmHg 81%
    03:00 +7°C° 0 mm 4 mps 743 mmHg 86%
    04:00 +8°C° 0 mm 3 mps 743 mmHg 91%
    05:00 +8°C° 0 mm 3 mps 743 mmHg 92%
    06:00 +8°C° 0 mm 3 mps 744 mmHg 93%
    07:00 +8°C° 0 mm 3 mps 744 mmHg 94%
    08:00 +9°C° 0,1 mm 3 mps 745 mmHg 89%
    09:00 +11°C° 0,1 mm 4 mps 746 mmHg 83%
    10:00 +13°C° 0,1 mm 4 mps 746 mmHg 77%
    11:00 +13°C° 0,5 mm 4 mps 746 mmHg 77%
    12:00 +14°C° 0,5 mm 5 mps 746 mmHg 77%
    13:00 +14°C° 0,5 mm 5 mps 746 mmHg 77%
    14:00 +14°C° 0,4 mm 5 mps 746 mmHg 77%
    15:00 +14°C° 0,4 mm 4 mps 746 mmHg 77%
    16:00 +14°C° 0,4 mm 4 mps 746 mmHg 77%
    17:00 +13°C° 0,2 mm 4 mps 747 mmHg 82%
    18:00 +11°C° 0,2 mm 3 mps 747 mmHg 86%
    19:00 +9°C° 0,2 mm 2 mps 748 mmHg 91%
    20:00 +8°C° 0 mm 2 mps 749 mmHg 91%
    21:00 +7°C° 0 mm 2 mps 749 mmHg 92%
    22:00 +7°C° 0 mm 2 mps 750 mmHg 93%
    23:00 +6°C° 0 mm 2 mps 750 mmHg 93%

    Pasado mañana, 26 Septiembre, Martes

    Tiempo Temperatura Precipitaciones Viento Presión Humedad
    00:00 +5°C° 0 mm 2 mps 750 mmHg 93%
    01:00 +5°C° 0 mm 2 mps 750 mmHg 92%
    02:00 +4°C° 0 mm 2 mps 750 mmHg 92%
    03:00 +4°C° 0 mm 2 mps 750 mmHg 92%
    04:00 +3°C° 0 mm 2 mps 750 mmHg 92%
    05:00 +4°C° 0 mm 2 mps 750 mmHg 92%
    06:00 +4°C° 0 mm 2 mps 751 mmHg 92%
    07:00 +4°C° 0 mm 2 mps 751 mmHg 92%
    08:00 +7°C° 0 mm 2 mps 751 mmHg 82%
    09:00 +10°C° 0 mm 2 mps 750 mmHg 72%
    10:00 +13°C° 0 mm 2 mps 750 mmHg 62%
    11:00 +15°C° 0 mm 2 mps 750 mmHg 58%
    12:00 +16°C° 0 mm 2 mps 749 mmHg 55%
    13:00 +17°C° 0 mm 2 mps 749 mmHg 51%
    14:00 +17°C° 0 mm 2 mps 748 mmHg 54%
    15:00 +18°C° 0 mm 2 mps 747 mmHg 57%
    16:00 +18°C° 0 mm 2 mps 747 mmHg 60%
    17:00 +16°C° 0 mm 3 mps 747 mmHg 66%
    18:00 +13°C° 0 mm 3 mps 747 mmHg 72%
    19:00 +11°C° 0 mm 3 mps 746 mmHg 78%
    20:00 +11°C° 0 mm 3 mps 746 mmHg 74%
    21:00 +11°C° 0 mm 4 mps 746 mmHg 69%
    22:00 +11°C° 0 mm 4 mps 746 mmHg 65%
    23:00 +12°C° 0 mm 5 mps 745 mmHg 60%

    27 Septiembre, Miércoles

    Tiempo Temperatura Precipitaciones Viento Presión Humedad
    00:00 +12°C° 0 mm 5 mps 743 mmHg 55%
    01:00 +13°C° 0 mm 5 mps 742 mmHg 50%
    02:00 +13°C° 0 mm 5 mps 742 mmHg 49%
    03:00 +13°C° 0 mm 5 mps 741 mmHg 48%
    04:00 +14°C° 0 mm 4 mps 741 mmHg 48%
    05:00 +13°C° 0 mm 4 mps 741 mmHg 53%
    06:00 +12°C° 0 mm 4 mps 741 mmHg 59%
    07:00 +11°C° 0 mm 3 mps 741 mmHg 65%
    08:00 +13°C° 0 mm 4 mps 742 mmHg 62%
    09:00 +16°C° 0 mm 5 mps 742 mmHg 59%
    10:00 +19°C° 0 mm 6 mps 742 mmHg 56%
    11:00 +20°C° 0 mm 7 mps 742 mmHg 54%
    12:00 +21°C° 0 mm 7 mps 741 mmHg 51%
    13:00 +21°C° 0 mm 8 mps 741 mmHg 49%
    14:00 +21°C° 0,1 mm 7 mps 741 mmHg 54%
    15:00 +21°C° 0,1 mm 6 mps 741 mmHg 58%
    16:00 +20°C° 0,1 mm 5 mps 741 mmHg 63%
    17:00 +17°C° 0,1 mm 5 mps 741 mmHg 67%
    18:00 +15°C° 0,1 mm 5 mps 742 mmHg 70%
    19:00 +13°C° 0,1 mm 4 mps 743 mmHg 74%
    20:00 +12°C° 0 mm 4 mps 744 mmHg 80%
    21:00 +11°C° 0 mm 4 mps 745 mmHg 86%
    22:00 +9°C° 0 mm 3 mps 745 mmHg 92%
    23:00 +8°C° 0 mm 3 mps 746 mmHg 93%

    28 Septiembre, Jueves

    Tiempo Temperatura Precipitaciones Viento Presión Humedad
    00:00 +7°C° 0 mm 3 mps 746 mmHg 94%
    01:00 +7°C° 0 mm 2 mps 746 mmHg 95%
    02:00 +6°C° 0 mm 2 mps 747 mmHg 95%
    03:00 +5°C° 0 mm 2 mps 747 mmHg 95%
    04:00 +5°C° 0 mm 2 mps 748 mmHg 95%
    05:00 +5°C° 0 mm 2 mps 748 mmHg 95%
    06:00 +6°C° 0 mm 2 mps 749 mmHg 94%
    07:00 +6°C° 0 mm 2 mps 750 mmHg 94%
    08:00 +8°C° 0 mm 2 mps 750 mmHg 83%
    09:00 +10°C° 0 mm 2 mps 750 mmHg 73%
    10:00 +13°C° 0 mm 3 mps 751 mmHg 63%
    11:00 +13°C° 0 mm 3 mps 750 mmHg 62%
    12:00 +14°C° 0 mm 3 mps 750 mmHg 61%
    13:00 +16°C° 0 mm 3 mps 750 mmHg 59%
    14:00 +16°C° 0 mm 3 mps 750 mmHg 61%
    15:00 +16°C° 0 mm 3 mps 750 mmHg 62%
    16:00 +16°C° 0 mm 3 mps 750 mmHg 63%
    17:00 +13°C° 0 mm 3 mps 750 mmHg 70%
    18:00 +12°C° 0 mm 2 mps 750 mmHg 77%
    19:00 +10°C° 0 mm 1 mps 751 mmHg 84%
    20:00 +10°C° 0 mm 1 mps 751 mmHg 85%
    21:00 +9°C° 0 mm 1 mps 752 mmHg 86%
    22:00 +8°C° 0 mm 1 mps 752 mmHg 88%
    23:00 +8°C° 0 mm 1 mps 752 mmHg 88%

    29 Septiembre, Viernes

    Tiempo Temperatura Precipitaciones Viento Presión Humedad
    00:00 +7°C° 0 mm 1 mps 751 mmHg 89%
    01:00 +7°C° 0 mm 1 mps 751 mmHg 90%
    02:00 +6°C° 0 mm 1 mps 751 mmHg 91%
    03:00 +6°C° 0 mm 1 mps 751 mmHg 91%
    04:00 +5°C° 0 mm 0 mps 751 mmHg 91%
    05:00 +5°C° 0 mm 0 mps 751 mmHg 90%
    06:00 +6°C° 0 mm 0 mps 752 mmHg 90%
    07:00 +8°C° 0 mm 1 mps 752 mmHg 89%
    08:00 +10°C° 0 mm 1 mps 752 mmHg 82%
    09:00 +13°C° 0 mm 2 mps 752 mmHg 74%
    10:00 +15°C° 0 mm 2 mps 751 mmHg 67%
    11:00 +16°C° 0,1 mm 3 mps 751 mmHg 66%
    12:00 +16°C° 0,1 mm 3 mps 750 mmHg 64%
    13:00 +17°C° 0,1 mm 4 mps 750 mmHg 63%
    14:00 +17°C° 0,1 mm 4 mps 749 mmHg 63%
    15:00 +17°C° 0,1 mm 4 mps 749 mmHg 64%
    16:00 +18°C° 0,1 mm 4 mps 748 mmHg 64%
    17:00 +16°C° 0,1 mm 3 mps 749 mmHg 69%
    18:00 +14°C° 0,1 mm 2 mps 749 mmHg 74%
    19:00 +13°C° 0,1 mm 2 mps 749 mmHg 79%
    20:00 +12°C° 0,1 mm 2 mps 750 mmHg 82%
    21:00 +12°C° 0,1 mm 2 mps 750 mmHg 84%
    22:00 +10°C° 0,1 mm 2 mps 750 mmHg 87%
    23:00 +10°C° 0,1 mm 2 mps 750 mmHg 90%
    Mostrar más